DECAYED

OBJECT B, 62264 (Decayed)

Orbit data source: Space-Track

You're viewing an Uncataloged Satellite

Recently launched and/or uncataloged satellites may have evolving metadata. Metadata may include but not limited to: Owner, Maufacturer, Bus, Motor, and Mission.

OBJECT B, 62264 was a satellite owned by IRSA (IR) in LEO that was launched on Fri, 06 Dec 2024 UTC via an SIMORGH launch vehicle from the Semnan, Iran (SEM). Unknown objects in Earth's orbit typically refer to objects detected orbiting the Earth but have not yet been identified or cataloged. These objects could be anything from previously untracked satellites, spent rocket stages, debris from satellite collisions, or even natural meteoroids temporarily captured by Earth's gravity. This object's orbit decayed before it could be identified.

Not visible in the next 10 days
Identifier
62264, 2024-236B
Orbit
Decayed
Country
Flag of UnknownUnknown / IRAN
Related business
None
Manufacturer
ISRC
Mission
Decayed Defense Communications
Bus & Motor
SAMAN, Unknown motor
Mass
300 kg wet, 300 kg dry
Launch date (UTC)
2024-12-06 (9 months ago)
Launch vehicle
SIMORGH
Launch site
Semnan, Iran (SEM)
Object type
Unknown
Shape & HBR
Cyl, 0.5 m
Radar Cross Section
0.491 m², Medium (>0.1 m² and < 1m²)

Expand to show TLE details & history
Last TLE update: 4 months ago

TLE from 4 months ago
0 OBJECT B
1 62264U 24236B   25136.84794975  .04690985  11112-4  15694-3 0  9996
2 62264  58.5337  29.8329 0004737   0.6171 359.4953 16.44433685 25708
Epoch: 2025-05-16T20:21Z
TLE epoch observation values (Epoch: 2025-05-16T20:21:02.858Z)
Latitude
-0.00003°
Longitude
-150.22677°
Altitude
152.47 km
Speed
7.818 km/s
True Right ascension
01h 59m 19s
True Declination
0° 00' 00"
Sunlit
Object was in daylight at epoch
Visualization orbit readout
Latitude
Unknown
Longitude
Unknown
Altitude
Unknown
Speed
Unknown
Apparent Right ascension
Unknown
Apparent Declination
Unknown
Sunlit
N/A
Visualization observer readout
Local Sidereal Time
13:52:24
Azimuth
Unknown
Elevation
Unknown
Doppler factor
Unknown
Orbital elements
Apogee altitude
156.517 km
Perigee altitude
150.329 km
Semi-major axis
6,531.56 km
Eccentricity
0.00047
Inclination
58.5337°
RAAN
29.8329°
Arg. of periapsis
0.6171°
True anomaly
359.49482°
Mean anomaly
359.4953°
Eccentric anomaly
359.49506°
Mean motion
4.11167 °/min
Orbital period
87.56 mins
BSTAR
0.00015694
Loading maneuver chart data...
Computing Atmospheric mass density...
Loading historical data...
Loading historical data...
Loading historical data...
Loading historical data...
Loading historical data...
Loading historical data...
Loading historical data...
Other satellites on launch #236 in the year 2024 (2024-12-06 UTC)

Documentation

Showing up to 5 results
|